Buffalo, NY

6:43 AM EST on December 16, 2019 (GMT -0500)
Buffalo Niagara International

Weather History for KBUF - November, 2019

Change the Weather History Date:

Tuesday, November 12, 2019

  Actual Average Record
Temperature  
Mean Temperature 21 °F 42 °F  
Max Temperature 25 °F 49 °F 70 °F (2012)
Min Temperature 16 °F 35 °F 16 °F (2019)
Degree Days  
Heating Degree Days 44 23  
Month to date heating degree days 347 254  
Since 1 July heating degree days 781 859  
Cooling Degree Days 0 0  
Month to date cooling degree days 0 0  
Year to date cooling degree days 604 544  
Moisture  
Dew Point 15 °F    
Average Humidity 67    
Maximum Humidity 88    
Minimum Humidity 45    
Precipitation  
Precipitation 0.21 in 0.13 in 1.08 in (1879)
Month to date precipitation 1.64 1.56  
Year to date precipitation 42.12 34.14  
Snow  
Snow 2.90 in 0.20 in 8.20 in (1932)
Month to date snowfall 12.4 1.9  
Since 1 July snowfall 12.4 2.8  
Since 1 September snowfall 12.4 2.8  
Snow Depth 10.00 in    
Sea Level Pressure  
Sea Level Pressure 30.11 in    
Wind  
Wind Speed 10 mph (NNW)    
Max Wind Speed 20 mph    
Max Gust Speed 26 mph    
Visibility 5 miles    
Events Snow    
T = Trace of Precipitation, MM = Missing Value Source: NWS Daily Summary

Daily Weather History Graph

Daily Weather History Graph

Search for Another Location

Airport or City:

Astronomy

Nov. 12, 2019 Rise Set
Actual Time 7:03 AM EST 4:54 PM EST
Civil Twilight 6:32 AM EST 5:24 PM EST
Nautical Twilight 5:58 AM EST 5:58 PM EST
Astronomical Twilight 5:25 AM EST 6:32 PM EST
Moon 5:21 PM EST (11/12) 6:51 AM EST (11/12)
Length of Visible Light 10h 52m
Length of Day
9h 51m
Full, 100% of the Moon is Illuminated
Nov 12
Full
Nov 19
Last Quarter
Nov 26
New
Dec 4
First Quarter
Dec 12
Full

Hourly Weather History & Observations

Time (EST) Temp. Windchill Dew Point Humidity Pressure Visibility Wind Dir Wind Speed Gust Speed Precip Events Conditions
12:13 AM 25.0 °F 13.6 °F 21.9 °F 88% 29.96 in 0.8 mi North 12.7 mph - 0.04 in Snow Light Snow
12:39 AM 25.0 °F 14.8 °F 21.9 °F 88% 29.96 in 1.0 mi North 10.4 mph - 0.06 in Snow Light Snow
12:54 AM 25.0 °F 14.8 °F 21.9 °F 88% 29.99 in 1.0 mi North 10.4 mph - 0.07 in Snow Light Snow
1:37 AM 25.0 °F 14.2 °F 21.0 °F 85% 29.97 in 1.2 mi North 11.5 mph - 0.03 in Snow Light Snow
1:54 AM 24.1 °F 12.5 °F 21.0 °F 88% 30.00 in 1.2 mi North 12.7 mph - 0.03 in Snow Light Snow
2:54 AM 23.0 °F 10.6 °F 19.9 °F 88% 30.02 in 1.8 mi North 13.8 mph - 0.03 in Snow Light Snow
3:23 AM 23.0 °F 13.1 °F 19.9 °F 88% 29.99 in 1.2 mi North 9.2 mph - 0.56 in Snow Light Snow
3:32 AM 23.0 °F 13.1 °F 19.0 °F 85% 29.99 in 2.0 mi North 9.2 mph - 0.56 in Snow Light Snow
3:54 AM 23.0 °F 13.9 °F 19.0 °F 85% 30.03 in 5.0 mi North 8.1 mph - 0.56 in Snow Light Snow
4:01 AM 23.0 °F 13.9 °F 19.0 °F 85% 29.99 in 6.0 mi North 8.1 mph - 0.00 in Snow Light Snow
4:21 AM 23.0 °F 15.8 °F 19.0 °F 85% 30.00 in 6.0 mi NNW 5.8 mph - 0.00 in Snow Light Snow
4:54 AM 23.0 °F 13.9 °F 19.0 °F 85% 30.05 in 6.0 mi NNW 8.1 mph - 0.00 in Snow Light Snow
5:19 AM 23.0 °F 13.1 °F 19.9 °F 88% 30.01 in 2.5 mi NNW 9.2 mph - 0.00 in Snow Light Snow
5:27 AM 23.0 °F 11.7 °F 19.0 °F 85% 30.01 in 3.0 mi NNW 11.5 mph - 0.00 in Snow Light Snow
5:41 AM 23.0 °F 12.4 °F 19.0 °F 85% 30.02 in 4.0 mi NNW 10.4 mph - 0.01 in Snow Light Snow
5:54 AM 23.0 °F 12.4 °F 19.0 °F 85% 30.06 in 4.0 mi NNW 10.4 mph - 0.01 in Snow Light Snow
6:05 AM 21.9 °F 11.7 °F 19.0 °F 89% 30.03 in 3.0 mi NNW 9.2 mph - 0.00 in Snow Light Snow
6:13 AM 21.9 °F 11.7 °F 19.0 °F 89% 30.03 in 3.0 mi NNW 9.2 mph - 0.00 in Snow Light Snow
6:42 AM 21.9 °F 11.7 °F 19.0 °F 89% 30.04 in 3.0 mi NNW 9.2 mph - 0.00 in Snow Light Snow
6:54 AM 21.9 °F 10.4 °F 18.0 °F 85% 30.09 in 3.0 mi NNW 11.5 mph - 0.00 in Snow Light Snow
7:13 AM 21.9 °F 11.0 °F 18.0 °F 85% 30.06 in 4.0 mi NNW 10.4 mph - 0.00 in Snow Light Snow
7:54 AM 21.9 °F 11.0 °F 17.1 °F 82% 30.12 in 3.0 mi NNW 10.4 mph - 0.00 in Snow Light Snow
8:18 AM 21.9 °F 11.0 °F 17.1 °F 82% 30.09 in 2.5 mi NNW 10.4 mph - 0.00 in Snow Light Snow
8:38 AM 21.9 °F 12.5 °F 17.1 °F 82% 30.09 in 6.0 mi NNW 8.1 mph - 0.01 in Snow Light Snow
8:52 AM 21.2 °F 11.7 °F 17.6 °F 86% 30.10 in 4.0 mi NNW 8.1 mph - 0.01 in Snow Light Snow
8:54 AM 21.9 °F 11.7 °F 17.1 °F 82% 30.14 in 4.0 mi NW 9.2 mph - 0.01 in Snow Light Snow
9:28 AM 21.9 °F 12.5 °F 17.1 °F 82% 30.10 in 2.0 mi NNW 8.1 mph - 0.00 in Snow Light Snow
9:54 AM 23.0 °F 11.1 °F 17.1 °F 78% 30.15 in 2.0 mi NW 12.7 mph - 0.00 in Snow Light Snow
10:13 AM 21.9 °F 8.7 °F 14.0 °F 72% 30.12 in 5.0 mi NW 15.0 mph - 0.00 in Snow Light Snow
10:54 AM 23.0 °F 9.6 °F 10.9 °F 60% 30.16 in 10.0 mi NNW 16.1 mph - 0.00 in Snow Light Snow
11:54 AM 21.9 °F 8.2 °F 8.1 °F 55% 30.17 in 10.0 mi North 16.1 mph - 0.00 in   Mostly Cloudy
12:54 PM 21.0 °F 8.6 °F 7.0 °F 55% 30.19 in 10.0 mi NNW 12.7 mph - N/A   Scattered Clouds
2:01 PM 21.9 °F 11.0 °F 10.0 °F 60% 30.16 in 10.0 mi NNW 10.4 mph - 0.00 in Snow Light Snow
2:54 PM 23.0 °F 13.1 °F 8.1 °F 53% 30.21 in 10.0 mi NNW 9.2 mph - 0.00 in   Mostly Cloudy
3:54 PM 23.0 °F 13.9 °F 9.0 °F 55% 30.21 in 10.0 mi West 8.1 mph - 0.00 in Snow Light Snow
4:54 PM 21.0 °F 11.4 °F 12.0 °F 68% 30.22 in 9.0 mi West 8.1 mph - 0.00 in   Scattered Clouds
5:54 PM 21.0 °F 9.9 °F 3.9 °F 48% 30.24 in 10.0 mi NW 10.4 mph - N/A   Scattered Clouds
6:54 PM 21.0 °F 11.4 °F 5.0 °F 50% 30.25 in 10.0 mi NW 8.1 mph - N/A   Mostly Cloudy
7:54 PM 19.9 °F 8.6 °F 5.0 °F 52% 30.26 in 10.0 mi WNW 10.4 mph - N/A   Partly Cloudy
8:54 PM 18.0 °F 8.7 °F 7.0 °F 62% 30.27 in 10.0 mi West 6.9 mph - N/A   Partly Cloudy
9:54 PM 17.1 °F 6.6 °F 9.0 °F 71% 30.27 in 10.0 mi WSW 8.1 mph - N/A   Partly Cloudy
10:54 PM 17.1 °F 4.3 °F 10.9 °F 77% 30.28 in 10.0 mi West 11.5 mph - N/A   Mostly Cloudy
11:54 PM 17.1 °F 6.6 °F 10.9 °F 77% 30.28 in 10.0 mi West 8.1 mph - N/A   Mostly Cloudy